Regional Weather Roundup
Issued by NWS

Home | Current Version | Previous Version | Text Only | Print | Product List | Glossary On
Versions: 1 2 3 4 5 6 7 8 9 10 11 12 13 14 15 16 17 18 19 20 21 22 23 24 25 26 27 28 29 30 31 32 33 34 35 36 37 38 39 40 41 42 43 44 45 46 47 48 49 50
000
ASUS44 KFWD 291001
RWRTX
NORTH TEXAS HOURLY WEATHER ROUNDUP
NATIONAL WEATHER SERVICE FORT WORTH TX
500 AM CDT WED JUL 29 2015

NOTE: "FAIR" INDICATES FEW OR NO CLOUDS BELOW 12,000 FEET WITH NO
SIGNIFICANT WEATHER AND/OR OBSTRUCTIONS TO VISIBILITY.

TXZ118-119-291100-
DALLAS/FORT WORTH METROPLEX

CITY           SKY/WX    TMP DP  RH WIND       PRES   REMARKS
DFW AIRPORT    CLEAR     83  68  60 S14       29.98R
DALLAS LOVE    CLEAR     83  68  60 S8        29.99R
FTW MEACHAM    CLEAR     83  68  60 S9        29.98R
DAL-EXECUTIVE  CLEAR     80  69  69 S6        29.99R
FTW-ALLIANCE   CLEAR     80  68  66 S5        29.98R
FTW-NAS-JRB    CLEAR     82  69  64 S8        29.99R
ARLINGTON      CLEAR     81  68  64 S6        29.99R
GRAND PRAIRIE  CLEAR     82  71  69 S6        30.00R
MESQUITE       CLEAR     76  68  76 S3        30.00R
LANCASTER      CLEAR     77  67  72 S3        30.00S
$$

TXZ091>094-102>105-117-120-121-131>134-291100-
NORTH CENTRAL TEXAS

CITY           SKY/WX    TMP DP  RH WIND       PRES   REMARKS
BOWIE          CLEAR     74  66  76 SE3       30.00S
DENTON         CLEAR     79  69  71 S7        29.98R
MCKINNEY       CLEAR     76  67  73 S3        29.99R
TERRELL        CLEAR     78  70  76 CALM      30.00R
WAXAHACHIE     CLEAR     75  69  82 SE5       30.00F
$$

TXZ083>090-098>101-113>116-127>130-139>142-154-155-291100-
WESTERN NORTH TEXAS

CITY           SKY/WX    TMP DP  RH WIND       PRES   REMARKS
WICHITA FALLS  CLEAR     74  67  78 S7        29.98R
WF-KICKAPOO    CLEAR     78  67  68 S5        29.99R
VERNON         CLEAR     77  62  59 CALM      29.99S
ABILENE        CLEAR     79  65  62 S8        30.01S
MINERAL WELLS  CLEAR     75  67  76 SE3       29.98R
STEPHENVILLE   CLEAR     74  67  76 S3        30.03S
COMANCHE       CLEAR     77  68  74 S7        30.02S
$$

TXZ143>147-156>162-174-175-291100-
CENTRAL TEXAS

CITY           SKY/WX    TMP DP  RH WIND       PRES   REMARKS
WACO           CLEAR     78  72  81 S10       30.00S
WACO-MCGREGOR  CLEAR     75  68  78 S9        30.02S
CORSICANA      CLEAR     78  71  79 SW6       30.01R
MEXIA          CLEAR     75  72  89 CALM      30.00S
HEARNE         CLEAR     74  73  96 S5        30.01R
TEMPLE         CLEAR     75  68  78 S9        30.01R
KILLEEN        CLEAR     73  69  86 S7        30.01R
KILLEEN-SKYLRK CLEAR     75  66  73 S5        29.99F
FORT HOOD      CLEAR     74  69  85 S6        30.00S
HAMILTON       CLEAR     75  67  77 S8        30.03R
LAMPASAS       CLEAR     76  70  84 CALM      30.02R
$$

TXZ095>097-106>112-122>126-135>138-148>153-164>167-291100-
EAST TEXAS

CITY           SKY/WX    TMP DP  RH WIND       PRES   REMARKS
PARIS          CLEAR     75  66  73 SW5       30.00R
SULPHUR SPRNGS CLEAR     80  69  69 SW7       30.02R
GILMER         CLEAR     77  69  78 CALM      30.00R
MINEOLA        CLEAR     81  72  74 SW5       30.01R
TYLER          CLEAR     78  70  76 CALM      30.00S
LONGVIEW       CLEAR     79  71  76 S3        29.99S
ATHENS         CLEAR     72  68  88 CALM      30.00R
PALESTINE      CLEAR     77  73  88 SE3       30.01S
JACKSONVILLE   CLEAR     78  70  77 S5        30.03S
CENTER         FAIR      80  73  81 CALM      30.00S
NACOGDOCHES    CLEAR     73  70  88 CALM      30.01S
LUFKIN         CLEAR     75  73  93 CALM      30.00S
$$

SUPPLEMENTAL OBSERVATIONS (CENTRAL)

CITY           SKY/WX    TMP DP  RH WIND       PRES   REMARKS
$$

SUPPLEMENTAL OBSERVATIONS (WEST)

CITY           SKY/WX    TMP DP  RH WIND       PRES   REMARKS
$$

SUPPLEMENTAL OBSERVATIONS (EAST)

CITY           SKY/WX    TMP DP  RH WIND       PRES   REMARKS
$$

SUPPLEMENTAL OBSERVATIONS ARE A COLLECTION OF AUTOMATED INSTRUMENTS
THAT ARE MAINTAINED BY A VARIETY OF FEDERAL AND STATE AGENCIES.
CERTAIN ELEMENTS...SUCH AS HUMIDITY VALUES AND SUSTAINED WIND
SPEEDS...MAY BE APPROXIMATED.




USA.gov is the U.S. government's official web portal to all federal, state and local government web resources and services.